Wind_Speed
18 19 17 16 17 16 16 16 15 14 12 13 13 13 11 11 10 10 9 9 9 7 6 5 6 6 7 7 7 7 7 7 6 7 7 7 8 7 7 6 5 5 5 5
19 18 16 16 16 16 16 17 16 15 14 13 12 13 12 11 11 11 10 9 9 8 7 6 7 8 8 8 7 7 7 7 7 7 7 7 8 8 7 6 6 6 6 6
19 16 16 16 17 17 16 16 16 15 14 14 14 14 13 11 11 11 12 12 11 10 8 8 8 9 9 9 9 8 8 8 8 7 8 8 8 8 8 7 7 7 7 6
19 18 18 17 17 17 17 16 15 15 15 15 15 15 13 13 11 12 13 13 13 11 10 10 10 11 11 10 9 10 9 9 9 8 8 8 8 9 8 7 7 7 8 7
19 19 19 19 18 17 16 16 17 16 16 17 16 17 15 15 14 13 13 13 13 12 12 11 11 11 11 11 10 11 10 10 9 9 8 9 9 9 9 8 8 8 8 9
19 19 20 19 18 17 15 16 17 17 18 18 17 18 16 15 14 13 13 13 13 12 12 12 12 11 12 12 12 12 11 11 11 10 10 10 10 10 10 9 9 9 9 10
20 20 20 21 20 18 17 17 17 18 19 17 16 18 16 15 14 13 12 12 12 13 12 12 13 12 11 12 12 12 12 11 11 11 11 11 11 11 10 10 10 10 10 10
19 20 19 20 20 18 17 17 18 18 18 17 17 17 14 13 14 14 14 13 13 12 13 13 13 12 12 12 13 12 12 12 11 12 12 12 11 11 10 11 11 11 12 12
20 19 20 20 20 19 17 17 17 20 19 19 18 17 15 15 15 14 14 15 14 13 14 14 13 14 13 13 13 13 12 12 12 12 12 12 12 12 12 12 13 14 14 15
19 20 20 20 21 21 19 18 18 21 21 20 19 17 15 15 15 16 16 16 16 15 15 15 15 15 15 14 14 14 13 13 13 13 12 12 12 13 13 13 14 15 15 16
19 20 20 21 23 22 21 21 21 21 21 21 21 19 16 15 15 16 15 16 15 15 15 15 16 15 15 15 15 14 14 15 15 14 13 13 13 14 14 15 15 16 16 16
20 21 21 22 22 23 24 23 22 22 22 23 22 19 18 18 17 17 16 16 15 15 15 15 16 16 15 15 15 15 16 16 15 15 15 14 14 15 15 16 16 16 17 18
21 22 22 23 24 25 26 25 24 24 24 24 22 21 18 18 17 17 16 16 16 16 16 16 16 16 16 16 16 16 17 16 16 15 15 15 15 15 15 16 16 17 17 18
21 23 24 25 25 26 26 26 25 25 25 25 24 22 19 18 18 18 17 17 19 18 17 16 16 16 17 17 16 16 16 17 17 17 16 16 15 15 15 16 16 17 18 18
23 24 24 24 24 25 26 26 25 26 25 24 23 21 19 19 20 19 19 19 20 20 18 17 16 17 18 18 18 17 17 17 18 18 17 17 16 16 16 16 16 17 17 17
25 25 24 24 23 24 25 25 25 25 25 25 23 22 20 20 21 21 20 20 20 20 20 19 18 18 19 19 19 18 17 17 18 18 18 18 18 18 18 17 17 18 18 18
26 26 26 25 24 24 25 25 26 25 25 25 24 22 22 22 22 22 22 22 22 22 22 21 20 20 20 20 20 19 19 19 19 20 20 19 19 19 19 19 19 19 19 18
26 27 26 25 25 25 24 24 26 26 26 26 25 24 23 24 24 24 24 24 23 22 22 23 23 22 21 20 21 21 21 21 21 22 21 21 21 20 21 22 21 20 20 20
26 25 25 25 26 26 24 23 24 26 27 27 27 26 26 24 24 26 27 26 24 24 23 24 24 23 22 21 22 22 22 22 23 23 23 23 23 22 23 23 23 23 22 22
26 26 26 26 27 27 26 25 25 27 27 27 27 28 28 27 27 26 26 27 26 26 26 26 25 23 23 22 22 22 23 23 24 24 24 24 24 24 24 24 24 23 23 23
26 27 27 27 28 28 27 26 26 28 28 28 28 29 29 29 29 28 28 28 27 26 27 27 27 25 24 24 24 24 24 24 24 25 25 25 25 25 25 25 25 24 24 24
26 27 28 29 29 29 27 26 27 27 28 28 29 29 29 30 29 29 30 29 28 27 27 27 27 26 26 25 25 25 25 26 27 26 26 25 25 26 26 26 25 25 25 25
27 28 28 29 30 29 28 28 28 29 28 28 28 28 29 30 32 31 30 31 31 30 29 29 28 28 28 27 27 26 26 27 28 27 27 26 27 27 27 27 27 27 27 27
29 29 29 29 29 29 29 29 29 30 30 30 30 30 31 32 31 32 33 32 31 31 30 30 30 29 29 29 29 28 27 28 28 28 28 28 28 29 29 29 29 29 28 28
27 29 30 30 31 31 30 30 30 29 30 32 31 31 32 32 32 32 32 33 33 32 31 31 31 30 30 30 30 30 29 28 29 29 29 30 30 30 29 30 29 29 29 29
24 26 28 30 30 32 31 31 31 31 31 32 32 32 31 31 31 32 32 33 33 33 32 30 31 31 31 31 30 30 30 29 29 29 29 30 30 30 30 29 29 29 30 30
Wind_Direction
222 225 224 225 229 230 229 231 233 233 237 251 258 264 272 280 283 289 290 285 291 290 289 299 306 316 322 321 318 320 318 319 319 323 329 330 328 325 320 307 303 301 296 293
224 223 221 223 223 227 231 235 236 236 239 250 256 262 264 264 273 275 273 272 276 280 280 289 298 302 308 310 313 315 316 316 317 319 323 326 331 329 318 307 299 297 293 288
226 222 222 226 229 228 230 237 238 238 239 248 253 254 253 252 259 261 265 270 270 268 275 285 290 295 297 301 303 304 306 309 311 311 315 319 322 322 315 304 299 298 292 289
225 221 223 227 231 230 231 236 237 236 241 244 247 255 250 252 257 265 266 270 272 276 279 288 289 292 293 294 297 298 296 297 302 307 311 310 310 311 309 300 294 294 289 288
225 223 227 230 232 234 235 236 240 239 242 243 242 249 247 250 255 260 264 268 272 281 282 283 285 290 286 286 290 293 291 291 294 299 301 301 302 302 298 296 292 293 292 288
225 224 228 229 230 232 238 240 238 236 238 239 236 244 245 248 257 261 264 267 273 281 279 282 279 280 282 285 287 288 287 287 290 294 295 296 296 294 290 288 287 290 291 288
225 226 228 226 223 226 232 233 233 233 234 235 236 246 250 255 254 256 259 264 268 274 276 283 280 279 285 283 284 284 281 282 287 290 291 292 290 289 286 282 282 284 287 288
230 225 225 224 222 223 229 231 236 237 238 239 238 245 250 251 252 253 252 257 266 269 276 280 285 289 286 283 283 283 281 282 284 289 289 289 286 284 283 281 280 281 282 286
232 225 221 223 224 229 229 235 240 241 242 244 241 245 248 250 250 254 256 259 264 269 273 276 283 288 288 286 287 286 285 286 287 288 287 289 284 280 281 282 281 280 279 281
236 231 222 223 224 229 233 237 236 238 241 244 243 245 248 255 257 258 259 261 262 265 269 271 277 285 289 286 288 287 284 285 287 289 287 286 284 280 281 281 281 280 281 283
236 233 224 225 227 228 232 235 238 239 241 244 246 246 250 257 260 261 259 258 257 261 264 269 272 277 281 283 285 285 284 284 283 284 283 284 282 280 281 281 284 285 287 290
236 234 228 226 229 230 235 236 237 240 243 245 249 251 252 258 264 266 264 261 262 265 267 270 275 277 280 281 280 282 284 283 281 281 281 280 281 281 282 281 284 284 287 289
236 235 232 228 227 228 232 235 238 245 248 246 247 251 253 259 264 265 269 267 270 271 272 274 277 279 281 279 277 279 282 281 280 281 286 282 281 283 283 283 283 285 287 289
234 236 235 232 231 230 231 233 237 241 244 244 245 248 252 258 261 263 267 270 271 270 271 275 278 279 280 279 278 277 278 278 280 282 283 285 283 282 282 283 284 286 288 289
234 235 235 235 234 233 233 233 234 237 242 246 249 252 255 257 261 267 269 271 274 271 268 271 275 279 280 280 279 279 278 277 278 280 281 282 283 283 284 286 289 291 292 290
235 237 237 235 235 235 235 234 234 236 241 246 248 250 252 256 258 264 267 268 270 273 272 271 272 276 279 280 280 281 278 277 276 277 279 281 283 285 286 286 290 293 293 292
238 241 239 237 235 235 236 237 235 237 241 246 248 250 251 254 256 260 264 267 268 270 271 273 274 277 279 279 279 279 278 276 276 277 278 279 281 285 286 286 288 290 292 291
239 240 241 240 238 239 239 239 238 241 243 246 249 252 254 253 255 259 263 265 266 270 271 274 273 274 275 276 278 279 278 276 276 277 277 279 282 283 284 285 285 288 289 290
239 240 241 240 240 241 241 241 240 242 243 247 251 253 253 256 258 259 261 263 266 270 272 274 273 271 272 275 277 279 278 276 275 275 275 277 279 281 282 283 283 285 286 286
240 240 240 239 241 243 242 243 244 246 248 250 253 254 254 256 259 259 259 262 264 267 270 274 272 272 273 274 275 275 276 275 274 273 274 275 277 279 280 282 283 283 283 285
240 241 241 242 243 244 246 247 248 251 251 252 254 256 256 257 258 259 260 262 264 267 271 274 274 274 275 275 273 272 272 272 273 275 274 275 276 277 278 280 281 280 282 283
241 242 243 244 246 247 248 251 252 255 255 255 256 258 258 257 256 257 259 261 264 267 270 272 273 273 275 274 273 272 272 272 272 274 276 276 275 276 276 277 278 279 282 283
242 244 246 247 248 250 250 252 253 255 257 258 259 259 258 259 258 258 260 263 265 267 268 269 271 272 274 275 273 271 270 271 273 273 273 273 274 275 274 275 276 278 280 282
244 245 247 249 249 252 254 253 254 257 259 260 261 260 260 261 262 262 263 265 266 268 268 267 269 271 271 273 273 274 273 273 272 272 273 273 274 274 273 273 275 278 280 281
248 250 250 252 252 254 254 255 255 258 259 261 263 264 265 265 263 263 263 264 267 268 268 267 268 268 269 270 270 271 271 272 272 274 275 275 276 276 275 275 275 276 278 280
252 252 252 253 254 255 255 257 256 257 261 261 262 264 266 266 264 263 264 265 266 266 267 268 266 265 266 267 267 269 270 271 273 275 276 277 276 276 277 276 274 275 277 279
Height
5870 5873 5875 5877 5879 5880 5881 5882 5883 5885 5885 5885 5886 5886 5887 5887 5888 5888 5888 5888 5889 5889 5889 5889 5889 5888 5888 5887 5887 5886 5885 5884 5883 5882 5881 5880 5878 5877 5877 5876 5875 5875 5874 5874
5867 5870 5872 5874 5875 5876 5877 5878 5880 5882 5883 5882 5883 5883 5884 5885 5885 5886 5886 5886 5887 5887 5887 5887 5887 5887 5886 5885 5885 5884 5883 5882 5881 5880 5879 5878 5877 5876 5875 5874 5874 5873 5872 5872
5864 5868 5868 5869 5871 5873 5874 5875 5877 5878 5879 5879 5879 5880 5881 5883 5883 5883 5883 5884 5884 5885 5885 5885 5885 5885 5884 5883 5883 5882 5881 5880 5879 5878 5877 5876 5875 5874 5873 5872 5871 5871 5870 5870
5859 5862 5864 5865 5867 5869 5871 5873 5873 5874 5875 5875 5877 5877 5878 5879 5880 5881 5881 5882 5882 5882 5882 5882 5881 5881 5881 5881 5880 5879 5879 5878 5877 5876 5875 5874 5873 5872 5871 5870 5869 5868 5868 5867
5855 5858 5859 5861 5864 5866 5868 5869 5870 5870 5871 5872 5872 5873 5875 5876 5877 5878 5878 5879 5879 5879 5879 5878 5878 5879 5878 5878 5878 5877 5876 5875 5874 5873 5872 5871 5870 5869 5868 5867 5867 5866 5866 5865
5851 5854 5855 5858 5860 5862 5863 5864 5865 5866 5867 5868 5869 5869 5871 5872 5873 5874 5875 5875 5875 5876 5876 5876 5876 5876 5875 5875 5875 5874 5873 5872 5871 5870 5869 5868 5867 5866 5865 5864 5864 5864 5863 5863
5846 5849 5850 5853 5855 5858 5859 5860 5861 5861 5862 5863 5865 5865 5867 5867 5869 5870 5872 5872 5872 5873 5873 5873 5873 5872 5872 5872 5871 5870 5869 5868 5868 5867 5866 5865 5864 5863 5862 5862 5861 5861 5860 5860
5841 5844 5846 5848 5850 5852 5854 5855 5857 5858 5859 5860 5861 5860 5863 5863 5864 5866 5867 5868 5868 5869 5870 5870 5869 5869 5869 5868 5867 5867 5865 5864 5864 5863 5862 5862 5861 5860 5859 5859 5858 5857 5857 5856
5836 5840 5843 5844 5846 5848 5849 5851 5853 5854 5855 5856 5856 5857 5859 5860 5861 5862 5863 5864 5864 5865 5866 5866 5866 5866 5865 5864 5864 5863 5861 5861 5860 5859 5858 5857 5857 5856 5855 5855 5854 5853 5852 5852
5831 5835 5838 5840 5842 5843 5845 5847 5848 5849 5849 5850 5852 5853 5855 5856 5857 5858 5859 5860 5860 5861 5861 5862 5862 5861 5861 5860 5860 5859 5858 5857 5856 5855 5854 5853 5852 5852 5851 5850 5849 5848 5847 5846
5826 5829 5833 5835 5836 5838 5840 5842 5842 5844 5845 5846 5847 5851 5851 5852 5852 5853 5854 5856 5856 5857 5857 5857 5857 5857 5857 5856 5855 5854 5854 5853 5852 5851 5850 5849 5848 5847 5847 5846 5845 5843 5841 5841
5820 5823 5826 5830 5832 5834 5835 5836 5838 5839 5840 5841 5842 5847 5846 5847 5847 5848 5849 5850 5851 5852 5853 5853 5853 5852 5852 5852 5851 5850 5849 5848 5848 5847 5846 5845 5844 5843 5842 5841 5840 5839 5838 5837
5815 5817 5820 5824 5828 5829 5829 5830 5832 5834 5835 5836 5837 5842 5842 5842 5843 5844 5844 5845 5846 5846 5846 5847 5847 5847 5847 5847 5846 5845 5844 5843 5843 5842 5841 5840 5839 5838 5837 5836 5835 5834 5833 5832
5809 5811 5814 5817 5819 5821 5823 5825 5827 5828 5829 5831 5833 5835 5837 5838 5839 5839 5840 5840 5840 5840 5840 5841 5841 5841 5842 5841 5841 5840 5839 5838 5838 5837 5837 5836 5835 5833 5832 5831 5830 5829 5828 5827
5804 5806 5808 5811 5813 5815 5817 5819 5821 5822 5824 5826 5828 5830 5832 5833 5834 5834 5834 5835 5834 5834 5834 5835 5835 5835 5835 5835 5835 5834 5834 5834 5833 5832 5832 5831 5830 5829 5828 5827 5826 5824 5823 5822
5798 5800 5803 5805 5807 5809 5811 5813 5815 5817 5818 5819 5822 5824 5826 5826 5827 5828 5829 5829 5830 5830 5829 5829 5829 5829 5829 5829 5829 5829 5829 5828 5828 5827 5827 5826 5825 5824 5823 5822 5821 5820 5818 5816
5792 5794 5797 5799 5801 5803 5805 5808 5810 5811 5812 5814 5816 5819 5819 5820 5821 5822 5823 5824 5824 5824 5824 5824 5824 5824 5825 5824 5824 5824 5823 5823 5822 5822 5821 5821 5820 5819 5818 5817 5816 5814 5813 5811
5786 5788 5790 5793 5796 5797 5801 5801 5803 5804 5806 5807 5809 5811 5812 5813 5814 5815 5816 5817 5817 5818 5819 5819 5819 5819 5819 5819 5818 5818 5817 5817 5816 5816 5815 5815 5814 5814 5813 5812 5810 5809 5807 5805
5780 5782 5784 5786 5788 5790 5793 5795 5796 5797 5799 5801 5803 5804 5805 5806 5807 5808 5808 5809 5810 5811 5812 5812 5812 5812 5812 5812 5811 5811 5810 5810 5809 5809 5809 5808 5808 5807 5806 5805 5804 5803 5801 5799
5774 5775 5778 5779 5781 5783 5787 5789 5789 5791 5792 5794 5795 5797 5798 5799 5800 5801 5801 5802 5803 5804 5804 5804 5804 5804 5804 5804 5804 5803 5803 5802 5802 5801 5801 5801 5800 5800 5799 5798 5797 5795 5794 5793
5767 5768 5770 5772 5773 5776 5779 5781 5783 5784 5786 5786 5787 5789 5790 5791 5793 5794 5793 5794 5795 5796 5797 5797 5797 5797 5797 5797 5796 5796 5795 5794 5794 5794 5794 5793 5793 5792 5791 5790 5789 5788 5787 5785
5759 5761 5763 5764 5766 5771 5772 5774 5775 5776 5778 5779 5780 5781 5782 5783 5784 5785 5785 5786 5787 5787 5788 5789 5789 5789 5789 5789 5788 5788 5787 5787 5786 5786 5786 5785 5785 5784 5783 5783 5782 5780 5779 5778
5752 5754 5756 5758 5761 5762 5763 5765 5767 5768 5769 5771 5772 5773 5774 5775 5776 5777 5778 5779 5779 5779 5780 5780 5780 5780 5780 5780 5780 5779 5779 5778 5778 5777 5777 5777 5776 5776 5775 5774 5773 5772 5771 5770
5745 5746 5748 5750 5752 5753 5755 5757 5759 5760 5762 5763 5764 5765 5766 5766 5766 5768 5769 5769 5770 5770 5771 5771 5770 5771 5771 5771 5771 5770 5770 5770 5769 5769 5768 5768 5767 5766 5766 5765 5764 5763 5762 5761
5738 5740 5741 5742 5744 5746 5747 5749 5751 5752 5753 5753 5754 5755 5756 5757 5757 5758 5759 5759 5760 5760 5760 5760 5760 5760 5761 5761 5762 5762 5762 5761 5761 5761 5760 5759 5758 5757 5756 5755 5755 5754 5753 5752
5731 5732 5733 5734 5736 5737 5739 5741 5743 5744 5744 5744 5745 5746 5747 5747 5747 5748 5748 5749 5750 5750 5750 5749 5749 5749 5750 5751 5752 5752 5752 5752 5752 5751 5751 5750 5749 5748 5747 5746 5745 5744 5743 5742